Weather History for EGDR - July, 2013

Change the Weather History Date:

Wednesday, July 17, 2013

  Actual Average Record
Temperature  
Mean Temperature 66 °F -  
Max Temperature 74 °F 64 °F 82 °F (2006)
Min Temperature 57 °F 54 °F 50 °F (2000)
Growing Degree Days 16 (Base 50)    
Moisture  
Dew Point 59 °F    
Average Humidity 79    
Maximum Humidity 97    
Minimum Humidity 54    
Precipitation  
Precipitation 0.00 in - - ()
Sea Level Pressure  
Sea Level Pressure 30.28 in    
Wind  
Wind Speed 8 mph ()    
Max Wind Speed 22 mph    
Max Gust Speed -    
Visibility 6.7 miles    
Events      
Averages and records for this station are not official NWS values.
T = Trace of Precipitation, MM = Missing Value Source: Averaged Metar Reports

Daily Weather History Graph

Daily Weather History Graph

Search for Another Location

Airport or City:

Trip Planner

Search our weather history database for the weather conditions in past years. The results will help you decide how hot, cold, wet, or windy it might be!

Date:

Astronomy

Jul. 17, 2013 Rise Set
Actual Time 5:30 AM BST 9:23 PM BST
Civil Twilight 4:48 AM BST 10:04 PM BST
Nautical Twilight 3:50 AM BST 11:02 PM BST
Astronomical Twilight 2:13 AM BST 12:36 AM BST
Moon 3:46 PM BST (7/17) 12:42 AM BST (7/17)
Length of Visible Light 17h 16m
Length of Day
15h 52m
Waxing Gibbous, 64% of the Moon is Illuminated
Jul 17
Waxing Gibbous
Jul 22
Full
Jul 29
Last Quarter
Aug 6
New
Aug 14
First Quarter

Hourly Weather History & Observations

Time (BST) Temp. Dew Point Humidity Pressure Visibility Wind Dir Wind Speed Gust Speed Precip Events Conditions
12:50 AM 60 °F 57 °F 85% 30.28 in 7 mi NNE 8.1 mph - -   Haze
12:50 AM 59.0 °F 57.2 °F 94% 30.27 in 6.2 mi NNE 8.1 mph - N/A   Haze
1:50 AM 59 °F 57 °F 91% 30.29 in 6 mi North 8.1 mph - -   Haze
1:50 AM 59.0 °F 57.2 °F 94% 30.27 in 6.2 mi North 8.1 mph - N/A   Haze
2:50 AM 58 °F 57 °F 94% 30.28 in 4 mi North 6.9 mph - -   Mist
2:50 AM 59.0 °F 57.2 °F 94% 30.27 in 4.3 mi North 6.9 mph - N/A   Partly Cloudy
3:50 AM 60 °F 58 °F 90% 30.27 in 4 mi North 8.1 mph - -   Haze
3:50 AM 59.0 °F 57.2 °F 94% 30.27 in 4.3 mi North 8.1 mph - N/A   Haze
4:50 AM 60 °F 58 °F 92% 30.28 in 2 mi North 6.9 mph - -   Haze
4:50 AM 60.8 °F 59.0 °F 94% 30.27 in - North 6.9 mph - N/A   Haze
5:50 AM 60 °F 59 °F 94% 30.28 in 3 mi NNE 8.1 mph - -   Mist
5:50 AM 60.8 °F 59.0 °F 94% 30.27 in 3.1 mi NNE 8.1 mph - N/A   Mist
6:50 AM 60 °F 59 °F 97% 30.28 in 4 mi NNE 4.6 mph - -   Mist
6:50 AM 60.8 °F 59.0 °F 94% 30.27 in 3.7 mi NNE 4.6 mph - N/A   Mist
7:50 AM 63 °F 61 °F 91% 30.28 in 4 mi North 3.5 mph - -   Haze
7:50 AM 62.6 °F 60.8 °F 94% 30.27 in 4.3 mi North 3.5 mph - N/A   Haze
8:50 AM 66 °F 59 °F 73% 30.29 in 7 mi NNE 8.1 mph - -   Haze
8:50 AM 66.2 °F 59.0 °F 78% 30.27 in 6.2 mi NNE 8.1 mph - N/A   Partly Cloudy
9:50 AM 69 °F 61 °F 68% 30.29 in 11 mi NNE 10.4 mph - -   Haze
9:50 AM 69.8 °F 60.8 °F 73% 30.27 in 6.2 mi NNE 10.4 mph - N/A   Partly Cloudy
10:50 AM 70 °F 60 °F 62% 30.29 in 12 mi NNE 11.5 mph - -   Scattered Clouds
10:50 AM 69.8 °F 59.0 °F 68% 30.27 in 6.2 mi NNE 11.5 mph - N/A   Partly Cloudy
11:50 AM 70 °F 61 °F 66% 30.29 in 12 mi North 12.7 mph - -   Scattered Clouds
11:50 AM 69.8 °F 60.8 °F 73% 30.27 in 6.2 mi North 12.7 mph - N/A   Partly Cloudy
12:50 PM 72 °F 61 °F 59% 30.29 in 12 mi North 13.8 mph - -   Scattered Clouds
12:50 PM 71.6 °F 60.8 °F 69% 30.27 in 6.2 mi North 13.8 mph - N/A   Partly Cloudy
1:50 PM 73 °F 60 °F 54% 30.29 in 11 mi NNE 22.4 mph - -   Haze
1:50 PM 73.4 °F 59.0 °F 61% 30.27 in 6.2 mi NNE 11.5 mph - N/A   Partly Cloudy
2:50 PM 73 °F 62 °F 59% 30.28 in 11 mi NNE 11.5 mph - -   Haze
2:50 PM 73.4 °F 60.8 °F 65% 30.27 in 6.2 mi NNE 11.5 mph - N/A   Partly Cloudy
3:50 PM 73.4 °F 60.8 °F 65% 30.27 in 6.2 mi NNE 11.5 mph - N/A   Partly Cloudy
4:50 PM 72 °F 59 °F 55% 30.28 in 11 mi NNE 11.5 mph - -   Haze
4:50 PM 71.6 °F 59.0 °F 64% 30.27 in 6.2 mi NNE 11.5 mph - N/A   Partly Cloudy
5:50 PM 71.6 °F 59.0 °F 64% 30.27 in 6.2 mi NNE 13.8 mph - N/A   Partly Cloudy
6:50 PM 69 °F 59 °F 64% 30.27 in 10 mi NNE 13.8 mph - -   Haze
6:50 PM 69.8 °F 59.0 °F 68% 30.27 in 6.2 mi NNE 13.8 mph - N/A   Partly Cloudy
7:50 PM 68.0 °F 60.8 °F 78% 30.27 in - North 11.5 mph - N/A   Clear
8:50 PM 64.4 °F 59.0 °F 83% 30.27 in - North 12.7 mph - N/A   Clear
9:50 PM 63 °F 59 °F 81% 30.30 in 9 mi North 10.4 mph - -   Haze
9:50 PM 62.6 °F 59.0 °F 88% 30.27 in - North 10.4 mph - N/A   Clear
10:50 PM 62.6 °F 59.0 °F 88% 30.27 in - North 9.2 mph - N/A   Clear
11:50 PM 60.8 °F 59.0 °F 94% 30.27 in - North 8.1 mph - N/A   Clear